User: anonymous   Login
Location: Caltech
(34.1382°N, 118.1253°W)
Time: 08:37:19
(UTC-07:00)
Language:

ALOS - Orbit

View from above orbital plane
View from above orbital plane
View from above satellite
View from above satellite

Ground track
Ground track

The orbit data is extracted from the following two-line orbital elements,

1 28931U 06002A   16270.21867473  .00000219  00000-0  52131-4 0  9993
2 28931  97.8762 304.3734 0002355  79.6532 280.4935 14.62244292568887
Epoch (UTC): 26 September 2016 05:14:53
Eccentricity: 0.0002355
inclination: 97.8762°
perigee height: 684 km
apogee height: 687 km
right ascension of ascending node: 304.3734°
argument of perigee: 79.6532°
revolutions per day: 14.62244292
mean anomaly at epoch: 280.4935°
orbit number at epoch: 56888

The dashed part of the orbit path shows where the satellite is in the earth's shadow,  

DLR